Find OneWeb SL0595

NORAD ID: 54661 Int'l Des: 2022-166 Owner: ONEWEBN Country: UK Constellation: oneweb operational
LEOCIRCULARPOLARONEWEB_TYPE

实时位置

正在加载3D地球...

关于 OneWeb SL0595

正在加载描述...

即将过境

Passes for default location (London). Set your location on the main map for personalized predictions.

高度历史

Loading altitude history...

两行轨道根数

1 54661U 22166V 26121.32390954 .00000062 00000-0 11974-3 0 9999
2 54661 87.9231 253.2985 0001667 97.3899 262.7424 13.21823977165342
Epoch: May 1, 2026 • Age: 5 hours

当前状态

高度 1192.1 km
速度 7.26 km/s
星下点 -35.74°S, 163.37°W
发射日期 Dec 8, 2022
运行时间 3.3 years
类型 internet

技术详情

分类 Payload
质量 148.00 kg
干质量 140.00 kg
总质量 148.00 kg
长度 1.30 m
直径 1.00 m
跨度 5.00 m
形状 Trapezoid+2 pan
制造商 ONEWUS
平台类型 ARROW
阶段状态 In Orbit
所有者/国家 ONEWEBN/UK

Most Searched